Bettles, AK

11:23 PM AKDT on March 24, 2017 (GMT -0800)
Bettles

Weather History for PABT - May, 2014

Change the Weather History Date:

Friday, May 30, 2014

  Actual Average Record
Temperature  
Mean Temperature 61 °F -  
Max Temperature 72 °F 63 °F 81 °F (1983)
Min Temperature 50 °F 41 °F 30 °F (2000)
Degree Days  
Heating Degree Days 4    
Growing Degree Days 11 (Base 50)    
Moisture  
Dew Point 41 °F    
Average Humidity 50    
Maximum Humidity 89    
Minimum Humidity 21    
Precipitation  
Precipitation 0.01 in - - ()
Sea Level Pressure  
Sea Level Pressure 29.66 in    
Wind  
Wind Speed 6 mph (East)    
Max Wind Speed 9 mph    
Max Gust Speed -    
Visibility 10 miles    
Events Rain    
Averages and records for this station are not official NWS values.
T = Trace of Precipitation, MM = Missing Value Source: NWS Daily Summary

Daily Weather History Graph

Daily Weather History Graph

Search for Another Location

Airport or City:

Trip Planner

Search our weather history database for the weather conditions in past years. The results will help you decide how hot, cold, wet, or windy it might be!

Date:

Astronomy

May. 30, 2014 Rise Set
Actual Time 2:51 AM AKDT 1:23 AM AKDT
Civil Twilight Sun does not rise Sun does not rise
Nautical Twilight Sun does not rise Sun does not rise
Astronomical Twilight Sun does not rise Sun does not rise
Moon 6:02 AM AKDT (5/30) 12:57 AM AKDT (5/30)
Length of Visible Light 24h 00m
Length of Day
22h 31m
Waxing Crescent, 4% of the Moon is Illuminated
May 30
Waxing Crescent
Jun 5
First Quarter
Jun 12
Full
Jun 19
Last Quarter
Jun 27
New

Hourly Weather History & Observations

Time (AKDT) Temp. Dew Point Humidity Pressure Visibility Wind Dir Wind Speed Gust Speed Precip Events Conditions
12:53 AM 63.0 °F 39.0 °F 41% 29.69 in 10.0 mi ESE 9.2 mph - 0.00 in   Overcast
1:53 AM 57.9 °F 42.1 °F 56% 29.71 in 10.0 mi East 9.2 mph - 0.00 in Rain Light Rain
2:53 AM 55.9 °F 45.0 °F 67% 29.73 in 10.0 mi South 5.8 mph - 0.00 in Rain Light Rain
3:53 AM 50.0 °F 46.9 °F 89% 29.72 in 10.0 mi NNE 5.8 mph - 0.03 in Rain Light Rain
4:53 AM 50.0 °F 46.0 °F 86% 29.72 in 10.0 mi NNE 8.1 mph - 0.01 in   Mostly Cloudy
5:53 AM 50.0 °F 46.0 °F 86% 29.72 in 10.0 mi NNE 5.8 mph - N/A   Overcast
6:53 AM 51.1 °F 46.9 °F 86% 29.72 in 10.0 mi NNE 3.5 mph - N/A   Mostly Cloudy
7:53 AM 52.0 °F 48.9 °F 89% 29.73 in 10.0 mi SE 4.6 mph - N/A   Mostly Cloudy
9:53 AM 57.0 °F 46.9 °F 69% 29.73 in 10.0 mi Calm Calm - N/A   Mostly Cloudy
10:53 AM 60.8 °F 44.6 °F 55% 29.70 in - Variable 3.5 mph - N/A   Scattered Clouds
11:51 AM 62.6 °F 37.4 °F 39% 29.69 in 10.0 mi Calm Calm - N/A   Mostly Cloudy
11:53 AM 62.1 °F 39.9 °F 44% 29.70 in 10.0 mi South 3.5 mph - N/A   Mostly Cloudy
12:53 PM 62.1 °F 37.9 °F 41% 29.69 in 10.0 mi SSE 4.6 mph - N/A   Mostly Cloudy
1:53 PM 63.0 °F 37.9 °F 40% 29.68 in 10.0 mi South 6.9 mph - N/A   Mostly Cloudy
2:53 PM 66.9 °F 36.0 °F 32% 29.66 in 10.0 mi NNE 4.6 mph - N/A   Mostly Cloudy
3:53 PM 66.0 °F 35.1 °F 32% 29.65 in 10.0 mi ESE 6.9 mph - N/A   Mostly Cloudy
4:53 PM 71.1 °F 37.9 °F 30% 29.62 in 10.0 mi Variable 4.6 mph - N/A   Mostly Cloudy
5:53 PM 68.0 °F 37.0 °F 32% 29.61 in 10.0 mi NNE 6.9 mph - N/A   Overcast
6:53 PM 69.1 °F 37.0 °F 31% 29.59 in 10.0 mi North - - N/A   Overcast
7:53 PM 68.0 °F 37.9 °F 33% 29.58 in 10.0 mi Variable 4.6 mph - N/A   Overcast
8:53 PM 66.9 °F 39.0 °F 36% 29.57 in 10.0 mi Variable 3.5 mph - 0.00 in   Overcast
9:53 PM 66.0 °F 37.9 °F 36% 29.56 in 10.0 mi NE 4.6 mph - 0.00 in   Overcast
10:53 PM 64.9 °F 37.0 °F 36% 29.55 in 10.0 mi East 5.8 mph - N/A   Overcast
11:53 PM 64.0 °F 36.0 °F 35% 29.54 in 10.0 mi Variable 3.5 mph - N/A   Overcast